Weather History for Corpus Christi, TX

Change the Weather History Date:

Sunday, August 25, 2013

  Actual Average Record
Temperature  
Mean Temperature 87 °F 84 °F  
Max Temperature 96 °F 94 °F 99 °F (2006)
Min Temperature 77 °F 75 °F 68 °F (1961)
Degree Days  
Heating Degree Days 0 0  
Month to date heating degree days 0 0  
Since 1 June heating degree days 0 0  
Since 1 July heating degree days 0 0  
Cooling Degree Days 22 19  
Month to date cooling degree days 556 499  
Year to date cooling degree days 2889 2449  
Since 1 June cooling degree days 1871 1608  
Growing Degree Days 36 (Base 50)    
Moisture  
Dew Point 73 °F    
Average Humidity 66    
Maximum Humidity 85    
Minimum Humidity 46    
Precipitation  
Precipitation 0.00 in 0.12 in 2.95 in (1966)
Month to date precipitation 0.60 2.06  
Year to date precipitation 10.40 18.48  
Snow  
Snow 0.00 in - - ()
Month to date snowfall 0.0  
Since 1 June snowfall 0.0  
Since 1 July snowfall 0.0  
Snow Depth 0.00 in    
Sea Level Pressure  
Sea Level Pressure 29.99 in    
Wind  
Wind Speed 10 mph (East)    
Max Wind Speed 20 mph    
Max Gust Speed 25 mph    
Visibility 10 miles    
Events Thunderstorm    
T = Trace of Precipitation, MM = Missing Value Source: NWS Daily Summary

Daily Weather History Graph

Daily Weather History Graph

Search for Another Location

Airport:

Trip Planner

Search our weather history database for the weather conditions in past years. The results will help you decide how hot, cold, wet, or windy it might be!

Date:

Astronomy

Aug. 25, 2013 Rise Set
Actual Time 7:05 AM CDT 7:58 PM CDT
Civil Twilight 6:41 AM CDT 8:22 PM CDT
Nautical Twilight 6:13 AM CDT 8:50 PM CDT
Astronomical Twilight 5:44 AM CDT 9:19 PM CDT
Moon 11:02 PM CDT (8/25) 11:37 AM CDT (8/25)
Length of Visible Light 13h 40m
Length of Day
12h 52m
Waning Gibbous, 75% of the Moon is Illuminated
Aug 25
Waning Gibbous
Aug 28
Last Quarter
Sep 5
New
Sep 12
First Quarter
Sep 19
Full

Hourly Weather History & Observations

Time (CDT) Temp. Heat Index Dew Point Humidity Pressure Visibility Wind Dir Wind Speed Gust Speed Precip Events Conditions
12:51 AM 84.0 °F 92.6 °F 75.9 °F 76% 29.99 in 10.0 mi ESE 4.6 mph - N/A   Scattered Clouds
1:51 AM 82.9 °F 90.2 °F 75.0 °F 77% 29.98 in 10.0 mi SE 4.6 mph - N/A   Partly Cloudy
2:51 AM 82.0 °F 87.9 °F 73.9 °F 76% 29.97 in 10.0 mi ESE 3.5 mph - N/A   Partly Cloudy
3:51 AM 80.1 °F 84.5 °F 73.9 °F 81% 29.97 in 10.0 mi Calm Calm - N/A   Partly Cloudy
4:51 AM 79.0 °F - 73.0 °F 82% 29.97 in 10.0 mi North 5.8 mph - N/A   Partly Cloudy
5:51 AM 79.0 °F - 73.9 °F 84% 29.98 in 10.0 mi NNE 4.6 mph - N/A   Partly Cloudy
6:51 AM 79.0 °F - 73.9 °F 84% 29.99 in 10.0 mi NNE 6.9 mph - N/A   Partly Cloudy
7:51 AM 81.0 °F 86.2 °F 73.9 °F 79% 30.01 in 10.0 mi NNE 6.9 mph - N/A   Partly Cloudy
8:51 AM 84.0 °F 91.2 °F 73.9 °F 72% 30.01 in 10.0 mi NNE 16.1 mph - N/A   Partly Cloudy
9:51 AM 90.0 °F 99.0 °F 73.9 °F 59% 30.02 in 10.0 mi NE 11.5 mph - N/A   Scattered Clouds
10:13 AM 89.6 °F 98.2 °F 73.4 °F 59% 30.03 in 10.0 mi NE 12.7 mph - N/A   Mostly Cloudy
10:40 AM 89.6 °F 98.2 °F 73.4 °F 59% 30.03 in 10.0 mi NNE 10.4 mph - N/A   Mostly Cloudy
10:51 AM 89.1 °F 97.0 °F 73.0 °F 59% 30.03 in 10.0 mi NE 13.8 mph - N/A   Scattered Clouds
11:51 AM 93.0 °F 101.9 °F 73.0 °F 52% 30.03 in 10.0 mi NE 11.5 mph 18.4 mph N/A   Scattered Clouds
12:51 PM 93.9 °F 102.1 °F 72.0 °F 49% 30.01 in 10.0 mi ENE 11.5 mph 17.3 mph N/A   Scattered Clouds
1:51 PM 93.9 °F 103.4 °F 73.0 °F 51% 30.01 in 10.0 mi East 11.5 mph 19.6 mph N/A   Scattered Clouds
2:51 PM 95.0 °F 104.5 °F 73.0 °F 49% 29.99 in 10.0 mi ESE 15.0 mph 21.9 mph N/A   Partly Cloudy
3:51 PM 95.0 °F 103.2 °F 72.0 °F 47% 29.96 in 10.0 mi East 17.3 mph - N/A   Partly Cloudy
4:32 PM 93.2 °F 100.5 °F 71.6 °F 49% 29.95 in 10.0 mi East 16.1 mph 24.2 mph N/A Thunderstorm Thunderstorm
4:49 PM 93.2 °F 100.5 °F 71.6 °F 49% 29.96 in 10.0 mi ESE 16.1 mph 21.9 mph N/A   Scattered Clouds
4:51 PM 93.0 °F 100.7 °F 72.0 °F 50% 29.96 in 10.0 mi East 15.0 mph 21.9 mph N/A   Scattered Clouds
5:51 PM 90.0 °F 99.0 °F 73.9 °F 59% 29.96 in 10.0 mi ESE 13.8 mph - N/A   Scattered Clouds
6:51 PM 89.1 °F 97.0 °F 73.0 °F 59% 29.97 in 10.0 mi East 12.7 mph - N/A   Scattered Clouds
7:51 PM 87.1 °F 95.4 °F 73.9 °F 65% 29.99 in 10.0 mi ESE 11.5 mph - N/A   Scattered Clouds
8:51 PM 86.0 °F 93.8 °F 73.9 °F 67% 29.99 in 10.0 mi SE 10.4 mph - N/A   Partly Cloudy
9:51 PM 84.9 °F 93.3 °F 75.0 °F 72% 30.01 in 10.0 mi SE 6.9 mph - N/A   Scattered Clouds
10:51 PM 84.0 °F 91.9 °F 75.0 °F 74% 30.01 in 10.0 mi SE 5.8 mph - N/A   Partly Cloudy
11:51 PM 84.0 °F 91.9 °F 75.0 °F 74% 30.01 in 10.0 mi SE 8.1 mph - N/A   Partly Cloudy